Simultaneous Nadir Overpasses (SNOs) Predictions

Prediction of SNOs between GOES-14 and NOAA-20 Satellite Orbit:

Table of predicted SNOs for the next 14.0 days since TLE Epoch: 1/18/2025
Index Date Time (GOES-14) GOES-14 Lat,Lon NOAA-20 Lat,Lon Distance(km) Time Diff (sec)
1 01/18/2025 08:28:56 0.27,-108.13 -0.02,-106.71 160.79 80
2 01/19/2025 20:53:33 -0.30,-108.07 -1.20,-112.01 449.91 80
3 01/20/2025 20:32:09 -0.29,-108.06 -0.15,-107.49 64.79 80
4 01/23/2025 08:37:53 0.31,-108.08 0.36,-108.23 17.72 80
5 01/24/2025 08:16:30 0.29,-108.06 -0.70,-103.71 496.81 80
6 01/25/2025 20:41:05 -0.33,-107.99 -0.56,-108.99 114.42 80
7 01/26/2025 20:19:40 -0.32,-107.98 0.44,-104.46 399.94 80
8 01/28/2025 08:44:09 0.35,-108.00 0.76,-109.73 197.77 80
9 01/29/2025 08:22:45 0.34,-107.98 -0.31,-105.21 316.48 80
10 01/30/2025 20:47:21 -0.36,-107.91 -0.93,-110.50 295.00 80
11 01/31/2025 20:25:56 -0.35,-107.90 0.08,-105.97 219.36 80
